User: anonymous   Login
Location: Veyrier
(46.1830°N, 6.2000°E)
Time: 20:59:57
(UTC+02:00)
Language:

Iridium 98 - Orbit

View from above orbital plane
View from above orbital plane
View from above satellite
View from above satellite

Ground track
Ground track

The orbit data is extracted from the following two-line orbital elements,

1 27451U 02031B   15185.47991282  .00000252  00000-0  83019-4 0  9991
2 27451 086.3966 320.5517 0002278 089.7872 336.1536 14.34217260689002
Epoch (UTC): 04 July 2015 11:31:04
Eccentricity: 0.0002278
inclination: 86.3966°
perigee height: 776 km
apogee height: 779 km
right ascension of ascending node: 320.5517°
argument of perigee: 89.7872°
revolutions per day: 14.34217260
mean anomaly at epoch: 336.1536°
orbit number at epoch: 68900

The dashed part of the orbit path shows where the satellite is in the earth's shadow,  

DLR